Change the Weather History Date:

Thursday, March 24, 2011

  Actual Average Record
Temperature  
Mean Temperature 74 °F 68 °F  
Max Temperature 80 °F 78 °F 95 °F (1928)
Min Temperature 68 °F 58 °F 39 °F (1952)
Degree Days  
Heating Degree Days 0 2  
Month to date heating degree days 45 71  
Since 1 July heating degree days 933 871  
Cooling Degree Days 9 4  
Month to date cooling degree days 115 80  
Year to date cooling degree days 213 156  
Growing Degree Days 23 (Base 50)    
Moisture  
Dew Point 66 °F    
Average Humidity 81    
Maximum Humidity 97    
Minimum Humidity 64    
Precipitation  
Precipitation 0.00 in 0.07 in 1.03 in (1941)
Month to date precipitation 0.22 1.50  
Year to date precipitation 4.36 4.97  
Snow  
Snow 0.00 in - - ()
Month to date snowfall 0.0  
Since 1 July snowfall 0.0  
Snow Depth 0.00 in    
Sea Level Pressure  
Sea Level Pressure 29.92 in    
Wind  
Wind Speed 10 mph (SE)    
Max Wind Speed 20 mph    
Max Gust Speed 25 mph    
Visibility 9 miles    
Events      
T = Trace of Precipitation, MM = Missing Value Source: NWS Daily Summary

Daily Weather History Graph

Daily Weather History Graph

Search for Another Location

Airport or City:

Trip Planner

Search our weather history database for the weather conditions in past years. The results will help you decide how hot, cold, wet, or windy it might be!

Date:

Astronomy

Mar. 24, 2011 Rise Set
Actual Time 7:29 AM CDT 7:43 PM CDT
Civil Twilight 7:06 AM CDT 8:06 PM CDT
Nautical Twilight 6:39 AM CDT 8:34 PM CDT
Astronomical Twilight 6:11 AM CDT 9:01 PM CDT
Moon 12:27 AM CDT (3/24) 11:05 AM CDT (3/24)
Length of Visible Light 13h 00m
Length of Day
12h 13m
Waning Gibbous, 69% of the Moon is Illuminated
Mar 24
Waning Gibbous
Mar 26
Last Quarter
Apr 3
New
Apr 11
First Quarter
Apr 17
Full

Hourly Weather History & Observations

Time (CDT) Temp. Dew Point Humidity Pressure Visibility Wind Dir Wind Speed Gust Speed Precip Events Conditions
12:43 AM 68.0 °F 66.2 °F 94% 29.91 in 6.0 mi SSE 8.1 mph - N/A   Mostly Cloudy
12:51 AM 68.0 °F 66.9 °F 96% 29.91 in 6.0 mi SE 8.1 mph - N/A   Scattered Clouds
1:12 AM 68.0 °F 66.2 °F 94% 29.91 in 6.0 mi SE 8.1 mph - N/A   Mostly Cloudy
1:51 AM 69.1 °F 66.9 °F 93% 29.91 in 6.0 mi SSE 9.2 mph - N/A   Mostly Cloudy
2:51 AM 68.0 °F 66.9 °F 96% 29.90 in 6.0 mi SSE 6.9 mph - N/A   Overcast
3:51 AM 69.1 °F 66.9 °F 93% 29.89 in 8.0 mi Variable 4.6 mph - N/A   Overcast
4:51 AM 69.1 °F 66.0 °F 90% 29.89 in 9.0 mi SE 6.9 mph - N/A   Overcast
5:43 AM 68.0 °F 66.2 °F 94% 29.89 in 9.0 mi SSE 8.1 mph - N/A   Overcast
5:51 AM 68.0 °F 66.0 °F 93% 29.90 in 9.0 mi SSE 5.8 mph - N/A   Overcast
6:31 AM 69.8 °F 66.2 °F 88% 29.91 in 6.0 mi SE 8.1 mph - N/A   Overcast
6:51 AM 69.1 °F 68.0 °F 96% 29.92 in 6.0 mi SE 6.9 mph - N/A   Overcast
7:46 AM 69.8 °F 66.2 °F 88% 29.93 in 5.0 mi SE 5.8 mph - N/A   Overcast
7:51 AM 69.1 °F 66.9 °F 93% 29.94 in 5.0 mi SE 5.8 mph - N/A   Overcast
8:51 AM 71.1 °F 66.0 °F 84% 29.95 in 8.0 mi ESE 8.1 mph - N/A   Overcast
9:51 AM 73.0 °F 66.0 °F 79% 29.98 in 10.0 mi Variable 6.9 mph - N/A   Mostly Cloudy
10:15 AM 73.4 °F 66.2 °F 78% 29.98 in 10.0 mi ESE 6.9 mph - N/A   Mostly Cloudy
10:51 AM 75.9 °F 66.9 °F 74% 29.99 in 10.0 mi East 8.1 mph - N/A   Mostly Cloudy
11:51 AM 75.0 °F 66.0 °F 73% 29.99 in 10.0 mi East 10.4 mph - N/A   Overcast
12:51 PM 78.1 °F 66.0 °F 66% 29.98 in 10.0 mi East 9.2 mph 16.1 mph N/A   Mostly Cloudy
1:51 PM 77.0 °F 66.0 °F 69% 29.95 in 10.0 mi East 16.1 mph 21.9 mph N/A   Mostly Cloudy
2:51 PM 77.0 °F 66.9 °F 71% 29.93 in 10.0 mi ESE 13.8 mph 24.2 mph N/A   Mostly Cloudy
2:56 PM 77.0 °F 66.2 °F 69% 29.93 in 10.0 mi East 13.8 mph 23.0 mph N/A   Mostly Cloudy
3:51 PM 75.9 °F 66.9 °F 74% 29.91 in 10.0 mi ESE 15.0 mph 23.0 mph N/A   Mostly Cloudy
4:13 PM 78.8 °F 66.2 °F 65% 29.90 in 10.0 mi ESE 16.1 mph 24.2 mph N/A   Mostly Cloudy
4:35 PM 78.8 °F 64.4 °F 61% 29.89 in 10.0 mi East 17.3 mph - N/A   Mostly Cloudy
4:51 PM 78.1 °F 66.0 °F 66% 29.88 in 10.0 mi ESE 12.7 mph 23.0 mph N/A   Scattered Clouds
5:51 PM 77.0 °F 64.0 °F 64% 29.87 in 10.0 mi ESE 16.1 mph 24.2 mph N/A   Mostly Cloudy
6:51 PM 73.9 °F 64.9 °F 73% 29.87 in 10.0 mi ESE 16.1 mph 21.9 mph N/A   Scattered Clouds
7:13 PM 73.4 °F 64.4 °F 73% 29.88 in 10.0 mi SE 9.2 mph 21.9 mph N/A   Mostly Cloudy
7:51 PM 72.0 °F 66.0 °F 81% 29.88 in 10.0 mi ESE 11.5 mph 20.7 mph N/A   Scattered Clouds
8:51 PM 70.0 °F 66.0 °F 87% 29.88 in 10.0 mi ESE 9.2 mph - N/A   Partly Cloudy
9:17 PM 69.8 °F 66.2 °F 88% 29.89 in 10.0 mi SE 8.1 mph - N/A   Mostly Cloudy
9:51 PM 70.0 °F 66.0 °F 87% 29.90 in 10.0 mi ESE 8.1 mph - N/A   Mostly Cloudy
10:13 PM 69.8 °F 66.2 °F 88% 29.91 in 10.0 mi ESE 8.1 mph 18.4 mph N/A   Mostly Cloudy
10:51 PM 70.0 °F 66.0 °F 87% 29.91 in 10.0 mi ESE 8.1 mph - N/A   Overcast
11:51 PM 70.0 °F 66.0 °F 87% 29.91 in 10.0 mi SSE 8.1 mph - N/A   Mostly Cloudy